Location: Jetmore
(38.0845°N, 99.8935°W)
Time: 09:02:10
(UTC+00:00)

N. Korean satellite - Pass Details

Date: 23 September 2021
Orbit: 450 x 495 km, 97.3° (Epoch: 15 October)

Event Time Altitude Azimuth Distance (km) Brightness Sun altitude
Rises 10:46:17 0° 39° (NE) 2,525 11.1 -20.7°
Reaches altitude 10° 10:50:23 10° 86° (E) 1,654 10.4 -19.9°
Maximum altitude 10:50:43 10° 92° (E) 1,648 10.3 -19.8°
Drops below altitude 10° 10:51:03 10° 97° (E) 1,656 10.2 -19.8°
Sets 10:55:10 0° 145° (SE) 2,542 10.5 -19.0°
